Regional Weather Roundup
Issued by NWS Charleston, SC

Current Version | Previous Version | Graphics & Text | Print | Product List | Glossary On
Versions: 1 2 3 4 5 6 7 8 9 10 11 12 13 14 15 16 17 18 19 20 21 22 23 24 25 26 27 28 29 30 31 32 33 34 35 36 37 38 39 40 41 42 43 44 45 46 47 48 49 50
000
ASUS42 KCHS 231428
RWRCHS

REGIONAL WEATHER ROUNDUP
NATIONAL WEATHER SERVICE CHARLESTON SC
1000 AM EDT SAT JUL 23 2016

NOTE: "FAIR" INDICATES FEW OR NO CLOUDS BELOW 12,000 FEET WITH NO
SIGNIFICANT WEATHER AND/OR OBSTRUCTIONS TO VISIBILITY.

NOT ALL STATIONS ARE QUALITY CONTROLLED. USE DATA WITH CAUTION...
ESPECIALLY DEWPOINT OBSERVATIONS.

SCZ027-030-031-034>040-042>050-231500-
...SOUTHEAST SOUTH CAROLINA...

CITY           SKY/WX    TMP DP  RH WIND       PRES   REMARKS
N CHARLESTON   MOSUNNY   87  72  60 W6        30.02S HX  93
WATERFRONT PRK   N/A     84  75  74 W6        30.01R HX  92
MOUNT PLEASANT FAIR      88  73  62 CALM      30.03S HX  96
JOHNS ISLAND   FAIR      88  75  66 SW5       30.03S HX  97
PINOPOLIS        N/A     82  75  78 VRB2      29.95S
MONCKS CORNER  FAIR      82  72  69 CALM      30.03R
SUMMERVILLE    FAIR      86  75  70 CALM      30.03S HX  95
BEAUFORT MCAS  SUNNY     87  73  62 VRB3      30.03R HX  94
BEAUFORT ARPT  FAIR      86  73  66 W6        30.03R HX  93
HILTON HEAD IS SUNNY     90  75  62 W7        30.04S HX 100
WALTERBORO     SUNNY     88  73  62 W3        30.04R HX  96
ALLENDALE      FAIR      86  75  70 CALM      30.02S HX  95

...SOUTHERN MIDLANDS AND PEE DEE...

CITY           SKY/WX    TMP DP  RH WIND       PRES   REMARKS
GEORGETOWN     FAIR      81  73  78 S6        30.04S
KINGSTREE      FAIR      86  73  66 SW5       30.02R HX  93
ORANGEBURG     SUNNY     85  75  72 CALM      30.03R HX  93
BARNWELL       NOT AVBL
AIKEN          FAIR      86  72  62 SW6       30.07R HX  92
MANNING        FAIR      84  73  70 W6        30.02S HX  91
COLUMBIA       MOSUNNY   90  71  53 W7        30.00S HX  96
SUMTER         SUNNY     85  74  68 SW6       29.99S HAZE    HX  93
FLORENCE       MOSUNNY   86  74  67 W6        30.02R HX  94
MYRTLE BEACH   PTSUNNY   82  70  65 S17       30.06R
N MYRTLE BEACH CLOUDY    81  75  82 S9        30.04R

$$

GAZ063-065-086>088-099>101-113>116-118-119-134>141-150-231500-
...SOUTHEAST GEORGIA...

CITY           SKY/WX    TMP DP  RH WIND       PRES   REMARKS
SAVANNAH ARPT  MOSUNNY   86  73  65 SW5       30.04R HX  93
HUNTER AAF     SUNNY     85  78  79 W6        30.01S HX  96
FORT STEWART   SUNNY     84  73  67 CALM      30.02R HX  90
STATESBORO     SUNNY     85  77  76 NW3       30.05R HX  96
SYLVANIA       NOT AVBL
CLAXTON        FAIR      85  76  75 CALM      30.04S HX  94

...CSRA...CENTRAL AND FAR SOUTHEAST GEORGIA...

CITY           SKY/WX    TMP DP  RH WIND       PRES   REMARKS
THOMSON        SUNNY     91  77  63 SW7       30.08S HX 103
AUGUSTA-BUSH   SUNNY     87  73  62 VRB5      30.02S HX  94
AUGUSTA-DANIEL SUNNY     87  73  62 SW3       30.04R HX  94
SWAINSBORO     FAIR      88  73  62 CALM      30.06R HX  96
VIDALIA        SUNNY     88  73  62 NW3       30.05S HX  96
EASTMAN        FAIR      87  66  49 NW3       30.07S
HAZLEHURST     FAIR      88  77  70 CALM      30.04S HX 101
ALMA           SUNNY     83  74  74 S3        30.05R
WAYCROSS       SUNNY     87  76  70 S3        30.06S HX  98
JESUP          FAIR      86  79  79 CALM      30.05S HX  99
BAXLEY         FAIR      86  79  79 CALM      30.04S HX  99
BRUNSWICK      SUNNY     86  73  66 CALM      30.06R HX  93
SAINT SIMONS   SUNNY     85  73  67 SW7       30.05R HX  91

$$

SCZ027-028-034-036>038-045-046-048>050-GAZ119-141-231500-
...LAKE AND SUPPLEMENTAL COASTAL OBSERVATIONS...

STATION/POSITION TIME  TEMP    WIND        PRES    WAVE   SWELL
                       AIR SEA DIR/SP/G            HT/PER HT/PER/DIR
                 (UTC) (F)     (DEG/KT/KT) (MB)    (FT/S) (FT/S/D)
WINYAH BAY       1345   82     210/  7     1016.0S
LAKE MURRAY      1300   83     280/  6/  9 1015.6S
ACE BASIN NERRS  1300   83     240/  1     1017.0S
FORT PULASKI     1400   84 87  220/  5/  7 1017.4R
SAPELO ISLAND    1400   85     250/  1     1017.0S

$$

ANZ835-935-AMZ111-154-330-350-352-354-370-450-454-472-231500-
...C-MAN AND BUOY OBSERVATIONS...

STATION/POSITION TIME  TEMP    WIND        PRES    WAVE   SWELL
                       AIR SEA DIR/SP/G            HT/PER HT/PER/DIR
                 (UTC) (F)     (DEG/KT/KT) (MB)    (FT/S) (FT/S/D)
BUOY 41004       1350   83 86   30/ 10/ 16 1016.7R   3/ 9   2/110/ 9
BUOY 41008       1350   83 86  230/  8/ 10 1017.0R   2/ 8   2/100/ 8
FOLLY BEACH CMAN 1400   85     200/  6/  7 1017.0R
CAPERS NEARSHORE 1408   83 83  230/  6/ 10 1016.8R
FRIPP NEARSHORE  1408   83 85  250/  8/ 10 1016.3R


STATION/POSITION TIME  TEMP    WIND        PRES    WAVE   SWELL
                       AIR SEA DIR/SP/G            HT/PER HT/PER/DIR
                 (UTC) (F)     (DEG/KT/KT) (MB)    (FT/S) (FT/S/D)
5E ST. MARYS GA  1401      86                N/A     2/ 8
FRYING PAN BUOY  1400   80 85  290/ 14/ 17 1017.1R
BUOY 41025       1350   84 86  230/ 10/ 10 1016.5S   2/ 8   2/110/ 8
CAPE LOOKOUT NC  1400   85     210/  9/ 11 1016.3R
BUOY 41002       1350   83 85   CALM  /  2 1017.3S   2/ 8   2/110/ 8
BUOY 41010       1320   84 86   20/  6/  8 1017.0S
ST AUGUSTINE FL  1400   83 86   30/  5/  5 1018.2R


$$



USA.gov is the U.S. government's official web portal to all federal, state and local government web resources and services.